[[{"header":{"parameterUnit":"m.s-1","parameterCategory":1,"la1":30.2991,"la2":30.254,"lo1":-89.0895,"lo2":-89.0444,"dy":0.0017,"dx":0.0017,"nx":28,"ny":28,"refTime":"2025-03-25T03:00:00:Z","depth":0,"parameterNumber":2,"parameterNumberName":"U-component_of_WINDS"},"data":[0,0,0,0,0,0,0,0,0,0,0,0,0,0,0,0,0,0,0,0,0,0,0,0,0,0,0,0,0,0,0,0,0,0,0,0,0,0,0,0,0,0,0,0,0,0,0,0,0,0,0,0,0,0,0,0,0,0,0.9226,0.9227,0,0.9313,0.9314,0.9315,0.9338,0.9337,0.9337,0.9336,0.9425,0.9428,0.9431,0,0,0,0,0,0,0,0,0,0,0,0,0,0.908,0.9083,0.9226,0.9227,0.9228,0.9313,0.9314,0.9315,0.9338,0.9337,0.9337,0.9336,0.9424,0.9428,0.9431,0,0,0,0,0,0,0,0,0,0,0,0,0,0.9153,0.9083,0.9226,0.925,0.9253,0.9312,0.9314,0.9315,0.9338,0.9337,0.9337,0.9336,0.9423,0.9427,0.9432,0.9473,0,0,0.9445,0.9446,0,0,0,0,0,0,0,0,0.9149,0.9158,0.9246,0.9249,0.9252,0.9314,0.9295,0.9368,0.9338,0.9306,0.9336,0.9336,0.9389,0.9396,0.9414,0.9477,0.9481,0.9445,0.9448,0.9449,0.9451,0,0,0,0,0,0,0,0.9143,0.9154,0.926,0.9247,0.9251,0.9256,0.9266,0.9309,0.9351,0.9309,0.9311,0.932,0.939,0.941,0.9416,0.9482,0.9445,0.9449,0.9451,0.9453,0.9582,0.9583,0,0,0,0,0,0,0.9134,0.915,0.9258,0.9263,0.9197,0.9259,0.927,0.9295,0.935,0.9358,0.9321,0.9321,0.9403,0.9411,0.9419,0.947,0.9449,0.9453,0.9456,0.9581,0.9582,0.9583,0,0,0,0,0,0,0.9131,0.9144,0.9254,0.9207,0.9222,0.9263,0.929,0.9297,0.9316,0.936,0.9367,0.9333,0.9402,0.9413,0.9459,0.9474,0.9455,0.9459,0.958,0.9582,0.9583,0.9573,0,0,0,0,0,0,0.9127,0.9142,0.9159,0.9207,0.9224,0.9293,0.9291,0.9299,0.9323,0.9324,0.9373,0.938,0.9403,0.9452,0.9463,0.9479,0.9462,0.9579,0.9581,0.9582,0.9572,0.9574,0.9575,0,0,0,0,0,0.9122,0.9153,0.916,0.9173,0.9246,0.9294,0.9303,0.9329,0.9324,0.9341,0.9369,0.9378,0.947,0.9457,0.9469,0.9487,0.9578,0.958,0.9582,0.9571,0.9573,0.9575,0,0,0,0,0,0,0.9106,0.916,0.9168,0.9216,0.925,0.9298,0.9319,0.933,0.9366,0.9366,0.9396,0.9406,0.945,0.9473,0.9457,0.9529,0.9524,0.9529,0.9512,0.9514,0.9516,0.9509,0.9466,0,0,0,0,0,0.9108,0.9143,0.9188,0.9227,0.9243,0.9278,0.93,0.9317,0.9353,0.9367,0.9399,0.9433,0.947,0.9493,0.953,0.9576,0.9586,0.9593,0.9595,0.9596,0.9599,0.9624,0.9627,0.959,0.959,0.959,0,0,0.9113,0.9147,0.9167,0.9224,0.9253,0.9287,0.929,0.9327,0.9353,0.9373,0.9418,0.9442,0.9482,0.9528,0.955,0.9549,0.9612,0.9598,0.9599,0.9602,0.9626,0.9629,0.9633,0.9591,0.9591,0.9591,0,0,0.914,0.9169,0.9204,0.9232,0.9274,0.9297,0.9305,0.935,0.9367,0.9412,0.9427,0.9458,0.9521,0.9549,0.9571,0.9606,0.9616,0.9617,0.9625,0.9648,0.9651,0.9654,0.9665,0.9669,0.9621,0.9621,0.9621,0,0.9141,0.9194,0.922,0.9256,0.928,0.9299,0.9333,0.9359,0.9411,0.9427,0.9425,0.9503,0.9532,0.9583,0.9591,0.9609,0.9619,0.9612,0.9649,0.9652,0.9655,0.9666,0.967,0.962,0.962,0.962,0.962,0,0.9192,0.9228,0.9251,0.93,0.9327,0.9361,0.9392,0.9416,0.9429,0.9452,0.9497,0.9532,0.9575,0.9589,0.9603,0.9642,0.964,0.9643,0.9639,0.9658,0.9668,0.9673,0.962,0.962,0.962,0.962,0,0,0.9212,0.9274,0.9282,0.9303,0.9351,0.9379,0.9414,0.9456,0.9475,0.951,0.9539,0.9591,0.9593,0.9619,0.9636,0.9657,0.968,0.9657,0.9659,0.966,0.9724,0.972,0.9725,0.9687,0.9688,0.9689,0.972,0,0.9244,0.9307,0.9331,0.9383,0.9416,0.9434,0.9464,0.9496,0.9518,0.9549,0.9573,0.9609,0.961,0.9625,0.9647,0.9673,0.9694,0.9671,0.9714,0.9716,0.9703,0.9731,0.9728,0.9756,0.9725,0.9725,0.9726,0,0.9289,0.9324,0.9379,0.942,0.9435,0.9462,0.9501,0.9531,0.9567,0.9581,0.9608,0.9624,0.966,0.9654,0.9704,0.9688,0.9707,0.9723,0.9725,0.9729,0.9721,0.9735,0.9765,0.9769,0.9733,0.9733,0.9732,0,0.9297,0.9357,0.9397,0.9415,0.9465,0.9484,0.9505,0.954,0.9563,0.9597,0.9612,0.965,0.967,0.9699,0.9724,0.9718,0.9771,0.9768,0.9784,0.9783,0.9794,0.9793,0.9827,0.9808,0.9807,0.9807,0.9807,0,0.9329,0.9362,0.9401,0.9426,0.9462,0.9489,0.9524,0.9547,0.9578,0.9606,0.9624,0.9651,0.9683,0.9713,0.9733,0.9771,0.978,0.9792,0.9797,0.979,0.9789,0.9803,0.9801,0.9808,0.9808,0.9808,0.9808,0,0.9344,0.9371,0.9416,0.9459,0.9471,0.9496,0.9532,0.9557,0.9579,0.9615,0.9625,0.9659,0.9696,0.9724,0.9772,0.9785,0.9825,0.983,0.9812,0.9814,0.9828,0.9826,0.9872,0.9879,0.9855,0.9856,0.9856,0,0.9362,0.9388,0.9433,0.9453,0.9475,0.9508,0.9531,0.9557,0.958,0.9622,0.9641,0.9679,0.971,0.9768,0.9797,0.9833,0.9839,0.9853,0.9845,0.9837,0.9838,0.9836,0.9838,0.9854,0.9854,0.9854,0.9854,0,0.9392,0.9404,0.9436,0.9473,0.95,0.953,0.9561,0.9577,0.9609,0.9634,0.9671,0.9695,0.9743,0.978,0.9819,0.9841,0.9852,0.9856,0.9861,0.9855,0.9843,0.9848,0.9814,0.9855,0.9855,0.9855,0.9855,0.9855,0.9408,0.9431,0.9466,0.9501,0.9527,0.9555,0.9579,0.9604,0.9635,0.9676,0.969,0.9728,0.9762,0.9815,0.9837,0.9867,0.9867,0.9876,0.9877,0.9879,0.9878,0.9838,0.9874,0.9874,0.9874,0.9874,0.9874,0,0.9438,0.9461,0.9493,0.9535,0.9562,0.957,0.9604,0.9626,0.966,0.969,0.9721,0.9763,0.9798,0.9829,0.9866,0.9884,0.989,0.9892,0.9891,0.9896,0.9876,0.9867,0.9887,0.9887,0.9887,0.9887,0.9887,0.9887,0.9456,0.9495,0.951,0.9561,0.9584,0.9621,0.964,0.9665,0.969,0.9736,0.9765,0.9785,0.9816,0.9855,0.9887,0.9895,0.9908,0.9909,0.9918,0.9899,0.9897,0.9896,0.9888,0.9911,0.9911,0.9935,0.9936,0.9936]},{"header":{"parameterUnit":"m.s-1","parameterCategory":1,"la1":30.2991,"la2":30.254,"lo1":-89.0895,"lo2":-89.0444,"dy":0.0017,"dx":0.0017,"nx":28,"ny":28,"refTime":"2025-03-25T03:00:00:Z","depth":0,"parameterNumber":3,"parameterNumberName":"V-component_of_WINDS"},"data":[0,0,0,0,0,0,0,0,0,0,0,0,0,0,0,0,0,0,0,0,0,0,0,0,0,0,0,0,0,0,0,0,0,0,0,0,0,0,0,0,0,0,0,0,0,0,0,0,0,0,0,0,0,0,0,0,0,0,2.5207,2.5206,0,2.5187,2.5186,2.5186,2.515,2.5149,2.5149,2.5148,2.5128,2.5128,2.5128,0,0,0,0,0,0,0,0,0,0,0,0,0,2.5213,2.5213,2.5207,2.5206,2.5206,2.5187,2.5186,2.5186,2.515,2.5149,2.5149,2.5148,2.5128,2.5128,2.5128,0,0,0,0,0,0,0,0,0,0,0,0,0,2.5203,2.5213,2.5207,2.5186,2.5184,2.5187,2.5186,2.5186,2.515,2.5149,2.5148,2.5147,2.5128,2.5128,2.5128,2.5149,0,0,2.5128,2.5128,0,0,0,0,0,0,0,0,2.5204,2.5203,2.5189,2.5187,2.5185,2.517,2.5181,2.5174,2.5151,2.5163,2.5148,2.5147,2.5142,2.5141,2.514,2.5148,2.5148,2.5128,2.5128,2.5128,2.5128,0,0,0,0,0,0,0,2.5205,2.5204,2.5199,2.5189,2.5186,2.5177,2.5175,2.518,2.5159,2.5162,2.5159,2.5157,2.5141,2.514,2.5139,2.5147,2.5128,2.5128,2.5129,2.5129,2.5171,2.5172,0,0,0,0,0,0,2.5209,2.5205,2.5199,2.5198,2.5192,2.5178,2.5175,2.5176,2.5159,2.5155,2.5158,2.5156,2.514,2.5139,2.5138,2.5162,2.5128,2.5129,2.5129,2.517,2.5171,2.5173,0,0,0,0,0,0,2.5209,2.5208,2.52,2.5201,2.5199,2.5179,2.518,2.5176,2.5174,2.5156,2.5152,2.5161,2.5139,2.5138,2.5147,2.516,2.5129,2.5129,2.5169,2.5171,2.5172,2.5209,0,0,0,0,0,0,2.5209,2.5209,2.5217,2.5201,2.5199,2.5209,2.5181,2.5176,2.5175,2.5171,2.5157,2.5154,2.5138,2.5147,2.5147,2.516,2.5129,2.5168,2.517,2.5172,2.5206,2.5212,2.5216,0,0,0,0,0,2.521,2.5228,2.5218,2.5217,2.5209,2.521,2.5209,2.5191,2.5176,2.5184,2.5172,2.5154,2.5159,2.5148,2.5148,2.5161,2.5167,2.5169,2.5171,2.5204,2.5211,2.5216,0,0,0,0,0,0,2.5246,2.5226,2.5214,2.5228,2.5221,2.5204,2.5213,2.5198,2.5195,2.5192,2.5169,2.5166,2.5178,2.517,2.5158,2.5181,2.516,2.5162,2.5185,2.5191,2.5196,2.5197,2.5129,0,0,0,0,0,2.5256,2.5259,2.5241,2.5255,2.5252,2.5234,2.5233,2.522,2.5212,2.5209,2.5197,2.519,2.5189,2.519,2.5189,2.5205,2.5201,2.5214,2.5219,2.5223,2.5225,2.5233,2.5238,2.518,2.518,2.518,0,0,2.5276,2.5266,2.5269,2.5262,2.5255,2.5258,2.5231,2.5236,2.5238,2.5209,2.5216,2.5208,2.5198,2.5211,2.5216,2.5205,2.524,2.5226,2.523,2.523,2.5236,2.5241,2.5246,2.5182,2.5182,2.5181,0,0,2.5315,2.5307,2.5318,2.5311,2.5301,2.5288,2.5291,2.5276,2.5269,2.5276,2.5254,2.5256,2.5256,2.525,2.5247,2.5282,2.5265,2.5282,2.5307,2.5315,2.5319,2.5323,2.5335,2.5339,2.5285,2.5285,2.5285,0,2.5341,2.5345,2.5325,2.5331,2.5328,2.5303,2.5313,2.5307,2.5297,2.5296,2.5284,2.5283,2.5275,2.5285,2.5294,2.5292,2.5294,2.5284,2.532,2.5324,2.5327,2.5338,2.5343,2.5287,2.5287,2.5286,2.5286,0,2.5378,2.5381,2.5391,2.5381,2.538,2.5388,2.5369,2.537,2.5356,2.5345,2.5352,2.5341,2.5336,2.5338,2.5325,2.5346,2.5339,2.5324,2.5303,2.5335,2.5345,2.5349,2.529,2.5289,2.5288,2.5288,0,0,2.5439,2.5418,2.5422,2.5417,2.5403,2.5405,2.5412,2.5407,2.5408,2.5402,2.5407,2.5407,2.5392,2.5389,2.5375,2.5381,2.5409,2.5365,2.5364,2.5373,2.543,2.5442,2.5447,2.5398,2.5399,2.5399,2.5431,0,2.5474,2.5484,2.5466,2.548,2.5482,2.5457,2.5463,2.5455,2.5445,2.5444,2.5432,2.5433,2.5414,2.5412,2.5417,2.5404,2.542,2.5402,2.5401,2.5402,2.5404,2.5452,2.5464,2.5495,2.5435,2.5435,2.5436,0,2.5516,2.5512,2.5526,2.5511,2.5511,2.5516,2.551,2.5511,2.5501,2.5493,2.5489,2.5472,2.5477,2.5457,2.5462,2.5451,2.5449,2.5443,2.5444,2.5442,2.542,2.5452,2.5504,2.5508,2.5442,2.5441,2.5441,0,2.5558,2.5556,2.5564,2.5561,2.5543,2.5548,2.5541,2.553,2.5528,2.5523,2.5521,2.5517,2.5514,2.5511,2.5493,2.548,2.5501,2.548,2.5494,2.5494,2.5499,2.5499,2.5551,2.5499,2.5499,2.5499,2.5499,0,2.5599,2.5609,2.5583,2.5588,2.5597,2.5577,2.5587,2.5577,2.5568,2.557,2.5548,2.5551,2.5527,2.5527,2.5513,2.552,2.5519,2.5512,2.5508,2.5514,2.5515,2.5512,2.5509,2.55,2.55,2.55,2.5499,0,2.5648,2.5631,2.5638,2.5621,2.5617,2.5625,2.561,2.5613,2.5601,2.5604,2.5604,2.5584,2.5583,2.5565,2.556,2.555,2.5562,2.5554,2.5565,2.5562,2.5577,2.5576,2.5629,2.5635,2.558,2.5581,2.5581,0,2.5675,2.5681,2.5665,2.5665,2.5659,2.5659,2.5657,2.5636,2.5635,2.5624,2.5629,2.5626,2.5622,2.5621,2.5606,2.5601,2.5593,2.5612,2.5592,2.5597,2.5592,2.5592,2.5592,2.5616,2.5617,2.5618,2.5618,0,2.5724,2.5715,2.5713,2.5708,2.5706,2.5701,2.5694,2.5696,2.5673,2.5672,2.5671,2.5668,2.5662,2.5659,2.5652,2.5644,2.5627,2.5624,2.5627,2.5633,2.5638,2.5635,2.5576,2.5623,2.5623,2.5622,2.5622,2.5622,2.5762,2.5766,2.5755,2.5753,2.5746,2.5741,2.5743,2.5731,2.5729,2.5723,2.5711,2.5711,2.57,2.5688,2.5682,2.5681,2.5671,2.5675,2.5676,2.5678,2.568,2.5639,2.568,2.5679,2.5679,2.5679,2.5679,0,2.5809,2.5801,2.5799,2.5791,2.5789,2.5774,2.5765,2.5765,2.5765,2.5757,2.5753,2.5751,2.5747,2.5732,2.5727,2.5729,2.5721,2.5728,2.5728,2.5726,2.569,2.5688,2.5735,2.5735,2.5735,2.5735,2.5735,2.5735,2.5833,2.584,2.583,2.5832,2.5824,2.5823,2.582,2.5814,2.5807,2.5805,2.5802,2.5793,2.5781,2.5774,2.577,2.5766,2.5765,2.5774,2.5767,2.5734,2.5728,2.5723,2.5721,2.5774,2.5774,2.5803,2.5803,2.5803]}]]